Tracking 19903 objects as of 16-Oct-2019
HD Live streaming from Space Station
objects crossing your sky now

SL-12 R/B(2)

Track SL-12 R/B(2) now!


NORAD ID: 26397
Int'l Code: 2000-036D
Perigee: 35,742.6 km
Apogee: 35,912.2 km
Inclination: 12.6 °
Period: 1,437.8 minutes
Semi major axis: 42198 km
RCS: 2.5119 m2 (large)
Launch date: July 4, 2000
Source: Commonwealth of Independent States (former USSR) (CIS)
Launch site: TYURATAM MISSILE AND SPACE COMPLEX (TTMTR)

Note: This is a ROCKET BODY
aabbcc
Your satellite tracking list
Your tracking list is empty




NASA's NSSDC Master Catalog

Two Line Element Set (TLE):
1 26397U 00036D   19288.83210931 +.00000121 +00000-0 +00000-0 0  9995
2 26397 012.5769 025.3129 0020086 007.8987 336.9026 01.00151884022917
Source of the keplerian elements: AFSPC